Strona główna
METAR-TAF:

METAR-TAF

Lotnisko :

Orange Municipal Airport

Orange, Massachusetts, Stany Zjednoczone

Szerokość geograficzna: 42-34-18N, Długość geograficzna: 072-16-39W, wysokość: 169 m

Aktualna obserwacja pogody

Raport powstał 42 minut temu, godzina 05:52 UTC
Cisza
Temperatura 4°C
Wilgotność 65%
Ciśnienie 1010 hPa
Widzialność: 16.1 km
Zachmurzenie całkowite na wysokości 3400 ft

METAR: KORE 170552Z AUTO 00000KT 10SM OVC034 04/M02 A2982 RMK AO2 SLP104 T00391022 10044 20033 51019

czas: 01:34 (06:34 UTC)


TAF: brakujący

Obserwacja i prognoza pogody dla ponad 4000 lotnisk (raport METAR i TAF).

Dostępne stacje oznaczono żółtymi i czerwonymi punktami na mapie.

Najedź kursorem aby zobaczyć nazwę stacji.

Kliknij aby zobaczyć obserwacje i prognozy pogody.

Aby zmienić mapę: kliknij na zielony przycisk z czarnym krzyżykiem, aby powiększyć; na zielony przycisk z myślnikiem, aby pomniejszyć; na zielone strzałki, aby przejść do map sąsiednich.


METAR-TAF: